Time,TemperatureF,DewpointF,PressureIn,WindDirection,WindDirectionDegrees,WindSpeedMPH,WindSpeedGustMPH,Humidity,HourlyPrecipIn,Conditions,Clouds,dailyrainin,SoftwareType,DateUTC
2013-02-06 00:23:00,44.1,39.3,30.01,West,269,0.0,0.0,83,0.00,,---,0.00,VWS V13.01,2013-02-06 05:23:00,
2013-02-06 00:53:00,42.3,38.1,30.01,West,269,0.0,1.0,85,0.00,,---,0.00,VWS V13.01,2013-02-06 05:53:00,
2013-02-06 01:23:00,42.4,38.8,30.01,West,269,0.0,0.0,87,0.00,,---,0.00,VWS V13.01,2013-02-06 06:23:00,
2013-02-06 01:53:00,41.9,38.3,30.01,West,269,0.0,0.0,87,0.00,,---,0.00,VWS V13.01,2013-02-06 06:53:00,
2013-02-06 02:23:00,41.0,37.1,30.01,West,269,0.0,2.0,86,0.00,,---,0.00,VWS V13.01,2013-02-06 07:23:00,
2013-02-06 02:53:00,41.0,37.4,30.01,West,269,0.0,2.0,87,0.00,,---,0.00,VWS V13.01,2013-02-06 07:53:00,
2013-02-06 03:23:00,40.0,35.9,30.02,West,269,0.0,1.0,85,0.00,,---,0.00,VWS V13.01,2013-02-06 08:23:00,
2013-02-06 03:53:00,39.5,35.4,30.02,West,269,0.0,2.0,85,0.00,,---,0.00,VWS V13.01,2013-02-06 08:53:00,
2013-02-06 04:23:00,39.3,35.2,30.03,West,269,0.0,1.0,85,0.00,,---,0.00,VWS V13.01,2013-02-06 09:23:00,
2013-02-06 04:53:00,38.0,33.9,30.04,West,269,0.0,1.0,85,0.00,,---,0.00,VWS V13.01,2013-02-06 09:53:00,
2013-02-06 05:23:00,36.5,32.4,30.06,West,269,0.0,1.0,85,0.00,,---,0.00,VWS V13.01,2013-02-06 10:23:00,
2013-02-06 05:53:00,35.5,32.0,30.07,West,269,0.0,2.0,87,0.00,,---,0.00,VWS V13.01,2013-02-06 10:53:00,
2013-02-06 06:23:00,35.1,31.9,30.09,West,269,0.0,2.0,88,0.00,,---,0.00,VWS V13.01,2013-02-06 11:23:00,
2013-02-06 06:53:00,34.5,31.3,30.10,West,269,0.0,2.0,88,0.00,,---,0.00,VWS V13.01,2013-02-06 11:53:00,
2013-02-06 07:23:00,33.5,30.3,30.12,West,276,0.0,1.0,88,0.00,,---,0.00,VWS V13.01,2013-02-06 12:23:00,
2013-02-06 07:53:00,34.4,31.2,30.13,West,278,0.0,2.0,88,0.00,,---,0.00,VWS V13.01,2013-02-06 12:53:00,
2013-02-06 08:23:00,37.0,32.6,30.14,North,357,0.0,4.0,84,0.00,,---,0.00,VWS V13.01,2013-02-06 13:23:00,
2013-02-06 08:53:00,43.2,34.5,30.15,NNW,344,3.0,6.0,71,0.00,,---,0.00,VWS V13.01,2013-02-06 13:53:00,
2013-02-06 09:23:00,47.9,34.3,30.16,NNW,346,0.0,5.0,59,0.00,,---,0.00,VWS V13.01,2013-02-06 14:23:00,
2013-02-06 09:53:00,50.6,34.1,30.17,NNW,345,2.0,4.0,53,0.00,,---,0.00,VWS V13.01,2013-02-06 14:53:00,
2013-02-06 10:23:00,53.9,35.7,30.17,NNW,345,0.0,4.0,50,0.00,,---,0.00,VWS V13.01,2013-02-06 15:23:00,
2013-02-06 10:53:00,56.4,34.2,30.17,North,349,0.0,4.0,43,0.00,,---,0.00,VWS V13.01,2013-02-06 15:53:00,
2013-02-06 11:23:00,58.7,34.5,30.18,North,358,5.0,5.0,40,0.00,,---,0.00,VWS V13.01,2013-02-06 16:23:00,
2013-02-06 11:53:00,59.5,33.9,30.17,NW,316,2.0,6.0,38,0.00,,---,0.00,VWS V13.01,2013-02-06 16:53:00,
2013-02-06 12:23:00,62.0,32.6,30.16,SW,224,0.0,4.0,33,0.00,,---,0.00,VWS V13.01,2013-02-06 17:23:00,
2013-02-06 12:53:00,63.3,30.5,30.15,North,358,1.0,5.0,29,0.00,,---,0.00,VWS V13.01,2013-02-06 17:53:00,
2013-02-06 13:23:00,63.3,28.8,30.13,NW,323,0.0,7.0,27,0.00,,---,0.00,VWS V13.01,2013-02-06 18:23:00,
2013-02-06 13:53:00,65.0,30.2,30.12,South,184,0.0,7.0,27,0.00,,---,0.00,VWS V13.01,2013-02-06 18:53:00,
2013-02-06 14:23:00,66.0,30.2,30.12,West,276,0.0,6.0,26,0.00,,---,0.00,VWS V13.01,2013-02-06 19:23:00,
2013-02-06 14:53:00,65.7,29.0,30.11,NW,317,0.0,6.0,25,0.00,,---,0.00,VWS V13.01,2013-02-06 19:53:00,
2013-02-06 15:23:00,66.8,28.9,30.11,NNE,21,0.0,5.0,24,0.00,,---,0.00,VWS V13.01,2013-02-06 20:23:00,
2013-02-06 15:53:00,67.0,25.8,30.11,West,274,1.0,5.0,21,0.00,,---,0.00,VWS V13.01,2013-02-06 20:53:00,
2013-02-06 16:23:00,65.8,25.9,30.11,SSW,192,0.0,3.0,22,0.00,,---,0.00,VWS V13.01,2013-02-06 21:23:00,
2013-02-06 16:53:00,64.6,26.0,30.12,NW,305,0.0,3.0,23,0.00,,---,0.00,VWS V13.01,2013-02-06 21:53:00,
2013-02-06 17:23:00,63.1,23.7,30.12,WNW,302,0.0,3.0,22,0.00,,---,0.00,VWS V13.01,2013-02-06 22:23:00,
2013-02-06 17:53:00,60.8,25.7,30.11,NNW,327,0.0,1.0,26,0.00,,---,0.00,VWS V13.01,2013-02-06 22:53:00,
2013-02-06 18:23:00,58.0,23.3,30.12,NNW,327,0.0,0.0,26,0.00,,---,0.00,VWS V13.01,2013-02-06 23:23:00,
2013-02-06 18:53:00,55.6,24.7,30.13,NNW,327,0.0,0.0,30,0.00,,---,0.00,VWS V13.01,2013-02-06 23:53:00,
2013-02-06 19:23:00,51.8,28.3,30.14,NNW,327,0.0,1.0,40,0.00,,---,0.00,VWS V13.01,2013-02-07 00:23:00,
2013-02-06 19:53:00,48.3,29.0,30.14,NNW,327,0.0,0.0,47,0.00,,---,0.00,VWS V13.01,2013-02-07 00:53:00,
2013-02-06 20:23:00,46.2,29.6,30.14,NNW,327,0.0,0.0,52,0.00,,---,0.00,VWS V13.01,2013-02-07 01:23:00,
2013-02-06 20:53:00,44.2,30.0,30.15,NNW,327,0.0,0.0,57,0.00,,---,0.00,VWS V13.01,2013-02-07 01:53:00,
2013-02-06 21:23:00,42.6,29.3,30.19,NNW,327,0.0,1.0,59,0.00,,---,0.00,VWS V13.01,2013-02-07 02:23:00,
2013-02-06 21:53:00,41.9,29.0,30.19,NNW,327,0.0,1.0,60,0.00,,---,0.00,VWS V13.01,2013-02-07 02:53:00,
2013-02-06 22:23:00,40.9,29.7,30.19,NNW,327,0.0,1.0,64,0.00,,---,0.00,VWS V13.01,2013-02-07 03:23:00,
2013-02-06 22:53:00,41.0,29.8,30.18,NNW,327,0.0,2.0,64,0.00,,---,0.00,VWS V13.01,2013-02-07 03:53:00,
2013-02-06 23:23:00,40.2,29.8,30.19,NNW,327,0.0,2.0,66,0.00,,---,0.00,VWS V13.01,2013-02-07 04:23:00,
2013-02-06 23:53:00,40.2,29.8,30.18,NNW,327,0.0,3.0,66,0.00,,---,0.00,VWS V13.01,2013-02-07 04:53:00,